◎P/LINEAR (2004 X1 = 2009 MB9)の軌道と予報位置

 マックノートは,サイデング・スプリングで2009年6月29日に発見した2009 MB9を
8月2日と3日に観測したところこの天体には約20"のコマがあって,CCD全光度が
17.3等であることを観測しました.東京のHidetaka Sato氏は,この天体が今年9月
に回帰予定のLINEAR周期彗星(2004 X1)であることを指摘しました.サイデング・
スプリングでの発見位置は,予報軌道(NK 1251(= HICQ 2008/2009))から赤経方向
に+1o.94,赤緯方向に-2o.72のずれがあり,近日点通過時刻への補正値にして,儺=
-2.20日でした.なお,彗星は,8月下旬から観測可能となります.

    P/LINEAR (2004 X1 = 2009 MB9)
Epoch 2009 Sept. 6.0 TT = JDT 2455080.5  
T 2009 Sept. 1.09935 TT                                 Nakano
q   0.7801999            (2000.0)            P               Q
n   0.20393034     Peri.  345.43476     +0.99144309     +0.13006508
a   2.8585655      Node     7.11985     -0.10898938     +0.87164879
e   0.7270660      Incl.    5.14782     -0.07184648     +0.47255843
P   4.83
From 138 observations 2004-2009, mean residual 0".62.
    the delta-T correction for the prediction in NK 1251 was -2.20 days.
Residuals in seconds of arc 
2004/                     041212 104  0.1-  0.5+    090630 E12  0.2-  0.2+  
041207 704 (3.1+  1.1-)   041213 246  0.2+  0.6+    090630 E12  0.0   0.1+  
041207 704 (0.3+  2.8-)   041213 246  0.1+  0.2+    090630 E12  0.2-  0.2+  
041207 704  1.8+  0.5+    041213 246  0.3+  0.3+    090630 E12  0.0   0.2+  
041207 704 (1.5+  2.6+)   041213 246  0.1+  1.0+    090630 D90  0.1-  0.3+  
041209 703  1.2+  0.1-    041213 246  0.3-  0.3+    090701 E12  0.3-  0.3+  
041209 703  0.5+  0.0     041213 246  1.0+  0.2+    090704 568  0.2+  0.2+  
041209 703  0.2-  0.4-    041214 215  0.5-  0.3-    090704 568  0.1+  0.2+  
041209 703  1.4-  1.5-    041215 246  1.1-  0.4+    090704 568  0.1+  0.2+  
041209 246  0.7+  0.2+    041215 246  0.5-  0.3+    090705 568  0.0   0.2+  
041209 246  0.9-  0.7-    041215 246  0.1+  1.0+    090705 568  0.1+  0.2+  
041209 246  0.1-  0.8+    041215 246  1.1-  0.4+    090705 568  0.0   0.2+  
041209 246  0.8-  0.1+    041215 246  0.7-  0.8+    090705 E12  0.2-  0.1+  
041209 246  0.8-  0.3-    041215 246  0.1-  0.1+    090707 E12  0.0   0.1+  
041209 246  1.4-  0.3-    041215 246  0.2-  0.1+    090707 E12  1.8+  1.0-  
041209 246  0.7-  0.3-    041215 246  0.7-  0.0     090707 E12  1.4+  0.9-  
041209 246  0.9-  0.1-    041219 J95  0.9+  0.4+    090707 E12  0.9-  0.5+  
041210 704 (2.4+  1.7+)   041219 J95 (2.5+  1.2-)   090707 E12  0.4-  0.5+  
041210 704  1.3+  1.4+    041222 213  0.4-  0.2+    090707 E12  0.1+  0.6+  
041210 704  1.0+  1.6+    041222 213  0.9-  0.2+    090708 I19  0.2-  0.3-  
041210 448  0.1+  0.3-    041222 213  0.6-  0.1+    090708 I19  0.2-  0.4+  
041210 448  0.1+  0.4-    041227 213 (2.3+  0.5-)   090708 I19  0.1-  0.2-  
041210 704  0.6+  1.1+    041227 213  1.9+  0.5-    090708 E12  0.3-  0.2-  
041210 448  0.0   0.4-    041230 349 (2.2+  0.4+)   090708 E12  0.2-  0.1-  
041210 704  0.2-  0.3+    041230 349  0.1+  0.0     090708 808 (2.8+  0.8-) 
041211 246  0.0   0.3-    041230 349  0.1-  0.4+    090709 808  1.3+  0.1+  
041211 246  0.2+  1.1-    041231 104  1.7+  1.4+    090709 808 (3.8-  1.1+) 
041211 246  0.2+  0.8-    041231 104  0.9+  0.1+    090709 I20  0.3+  0.3-  
041211 246  0.8-  0.3-    041231 104  1.4+  1.8-    090709 I20  0.0   0.3-  
041211 130  0.5+  0.2-    2005/                     090709 I20  0.3-  0.3-  
041211 599  0.5+  0.0     050101 J87  0.3+  0.7-    090711 I19  0.2+  0.4+  
041211 599  0.6-  0.8-    050101 J87  0.1-  0.5+    090711 I19  0.2-  0.4-  
041211 599  1.3+  1.2+    050101 J87  0.6+  0.1-    090711 I19  0.5-  0.0   
041211 599  0.2-  0.1-    050107 704 (2.1-  1.3+)   090711 I36  0.2-  0.1-  
041212 704  0.8+  1.1+    050107 704 (1.3+  2.4+)   090711 I36  0.0   0.2-  
041212 704  0.5+  1.4-    050107 704  0.9-  0.4+    090711 I36  0.1-  0.1+  
041212 704  0.0   0.4+    050107 704  0.7-  1.0-    090711 E12  0.2-  0.1-  
041212 704  0.8-  0.1+    050109 213  0.5+  0.9-    090713 I36  0.1+  0.3+  
041212 704 (3.7+  0.3+)   050109 213  0.3+  0.9-    090713 I36  0.1+  0.2+  
041212 704  0.7+  0.3+    050109 213  0.2-  0.3-    090713 I36  0.0   0.3+  
041212 704  0.2-  0.7-    050111 118  0.7+  0.0     090717 I20  0.0   0.1-  
041212 704  0.6-  0.3-    050111 118  0.1-  0.2-    090717 I20  0.1-  0.0   
041212 246  0.7-  1.6+    050111 118  0.4+  0.4-    090717 I20  0.2-  0.1-  
041212 246  0.7-  0.6-    050206 118  1.2-  0.5-    090717 E12  0.0   0.2-  
041212 246  0.9-  0.1+    050206 118  1.6-  1.0-    090717 E12  0.1-  0.0   
041212 246  0.6-  0.0     2009/                     090720 E12  0.2-  0.1-  
041212 246  0.0   0.4+    090629 E12  0.1-  0.9+    090724 I20  0.0   0.0   
041212 246  0.7+  0.5+    090629 E12  0.0   0.3+    090724 I20  0.0   0.3-  
041212 104  0.3-  0.2-    090629 E12  0.0   0.0     090724 I20  0.4-  0.8-  
041212 104  0.0   1.2-    090629 E12  0.0   0.5+    090802 E12  0.1-  0.6-  
041212 104  1.1-  0.6-    090630 E12  0.1-  0.1+    090802 E12  0.4-  0.6-  

2009/        α  (2000) δ      △      r    Daily motion  Elong. Phase    m1   天文薄明開始時
 27h JST    h  m       。  ,        AU      AU      ,     。     。      。      等     h。    A 。 
Aug. 20   08 49.23  +06 34.8    0.224   0.803   100.4/315    18.3  156.7   15.3    -8.5  255.6
     21   08 44.48  +07 46.3    0.230   0.799    93.9/316    19.8  154.5   15.3    -5.9  256.1
     22   08 40.09  +08 53.7    0.237   0.795    87.5/317    21.5  152.2   15.4    -3.3  256.6
     23   08 36.03  +09 57.3    0.245   0.792    81.3/317    23.3  149.7   15.4    -0.9  257.1
     24   08 32.29  +10 57.1    0.252   0.790    75.3/318    25.0  147.2   15.5    +1.4  257.5
     25   08 28.88  +11 53.3    0.260   0.787    69.6/319    26.8  144.7   15.5    +3.6  258.0
     26   08 25.78  +12 46.0    0.268   0.785    64.2/320    28.5  142.1   15.6    +5.8  258.4
     27   08 22.97  +13 35.4    0.277   0.784    59.0/322    30.2  139.6   15.6    +7.8  258.8
     28   08 20.45  +14 21.7    0.285   0.782    54.2/323    31.8  137.2   15.7    +9.7  259.2
     29   08 18.20  +15 04.9    0.294   0.781    49.6/325    33.3  134.7   15.8   +11.6  259.6
     30   08 16.21  +15 45.3    0.303   0.781    45.3/326    34.9  132.3   15.8   +13.3  260.0
     31   08 14.47  +16 23.1    0.312   0.780    41.4/329    36.3  130.0   15.9   +15.0  260.4
Sept. 1   08 12.97  +16 58.4    0.321   0.780    37.7/331    37.7  127.7   16.0   +16.6  260.7
                    m1 = 19.5 + 5 log △ + 10.0 log r

NAKANO
         **** Don't distribute anyone except personal 
se only ****
                (C) Copyright 2009 OAA/ComputingSection
write mail from CFAD0::NAKANO on 2009-08-04 08:08:02(JST).


    P/2004 X1 (LINEAR)

Epoch 2004 Nov. 11.0 TT = JDT 2453320.5  

T 2004 Nov. 1.92563 TT                                  Nakano

q   0.7824320            (2000.0)            P               Q

n   0.20360501     Peri.  345.44725     +0.99151934     +0.12948082

a   2.8616097      Node     7.14113     -0.10847460     +0.87176747

e   0.7265763      Incl.    5.14153     -0.07157272     +0.47249993

P   4.84 (+/- 0.25 day)

From 86 observations 2004 Dec. 7-2005 Feb. 6, mean residual 0".71.

Residuals in seconds of arc 

2004/                     041211 599  1.4+  1.2+    041215 246  0.1-  0.1+  

041207 704 (3.1+  1.3-)   041211 599  0.2-  0.1-    041215 246  0.2-  0.1+  

041207 704 (0.3+  3.0-)   041212 704  0.9+  1.1+    041215 246  0.6-  0.0   

041207 704  1.8+  0.3+    041212 704  0.6+  1.4-    041219 J95  0.8+  0.4+  

041207 704 (1.5+  2.4+)   041212 704  0.1+  0.3+    041219 J95 (2.3+  1.2-) 

041209 703  1.3+  0.2-    041212 704  0.7-  0.1+    041222 213  0.7-  0.2+  

041209 703  0.6+  0.1-    041212 704 (3.8+  0.2+)   041222 213  1.1-  0.3+  

041209 703  0.1-  0.5-    041212 704  0.8+  0.2+    041222 213  0.9-  0.1+  

041209 703  1.3-  1.7-    041212 704  0.2-  0.8-    041227 213  1.9+  0.5-  

041209 246  0.8+  0.0     041212 704  0.5-  0.3-    041227 213  1.5+  0.5-  

041209 246  0.8-  0.8-    041212 246  0.6-  1.6+    041230 349  1.8+  0.5+  

041209 246  0.0   0.6+    041212 246  0.6-  0.7-    041230 349  0.3-  0.1+  

041209 246  0.7-  0.0     041212 246  0.8-  0.1+    041230 349  0.6-  0.5+  

041209 246  0.7-  0.4-    041212 246  0.6-  0.1-    041231 104  1.2+  1.5+  

041209 246  1.3-  0.4-    041212 246  0.1+  0.4+    041231 104  0.4+  0.2+  

041209 246  0.6-  0.4-    041212 246  0.8+  0.5+    041231 104  1.0+  1.7-  

041209 246  0.8-  0.2-    041212 104  0.2-  0.3-    2005/                   

041210 704 (2.4+  1.6+)   041212 104  0.0   1.2-    050101 J87  0.2-  0.7-  

041210 704  1.4+  1.3+    041212 104  1.0-  0.6-    050101 J87  0.6-  0.5+  

041210 704  1.1+  1.5+    041212 104  0.0   0.4+    050101 J87  0.1+  0.0   

041210 448  0.2+  0.4-    041213 246  0.3+  0.6+    050107 704 (2.5-  1.4+) 

041210 448  0.2+  0.5-    041213 246  0.1+  0.1+    050107 704 (0.9+  2.6+) 

041210 704  0.6+  1.0+    041213 246  0.3+  0.3+    050107 704  1.4-  0.6+  

041210 448  0.0   0.5-    041213 246  0.1+  1.0+    050107 704  1.2-  0.9-  

041210 704  0.1-  0.2+    041213 246  0.3-  0.3+    050109 213  0.1+  0.7-  

041211 246  0.1+  0.4-    041213 246  1.1+  0.2+    050109 213  0.1-  0.6-  

041211 246  0.3+  1.1-    041214 215  0.4-  0.3-    050109 213  0.6-  0.0   

041211 246  0.3+  0.9-    041215 246  1.1-  0.4+    050111 118  0.3+  0.3+  

041211 246  0.7-  0.4-    041215 246  0.4-  0.3+    050111 118  0.4-  0.1+  

041211 130  0.6+  0.2-    041215 246  0.1+  1.0+    050111 118  0.0   0.1-  

041211 599  0.6+  0.1-    041215 246  1.1-  0.4+    050206 118  0.4+  0.2+  

041211 599  0.5-  0.8-    041215 246  0.7-  0.8+    050206 118  0.0   0.3-  



NAKANO

         **** Don't distribute anyone except personal use only ****

                (C) Copyright 2005 OAA/ComputingSection

write mail from CFAD0::NAKANO on 2005-11-03 23:39:18(JST).

 



    P/2004 X1 (LINEAR)                                                    

Epoch 2004 Nov. 11.0 TT = JDT 2453320.5  

T 2004 Nov. 1.92561 TT                                  Nakano

q   0.7824319            (2000.0)            P               Q

